weather.gov     
National Weather Service

Other Public Products
NWS Homepage
This page is being discontinued on March 12, 2014.
The same data is available at this site. Please update your bookmarks.
Thank you, and we apologize for the inconvenience.
Please send an email to SR-SRH.Webmaster@noaa.gov with any concerns.


Current Version
Previous Version:    01  02  03  04  05  06  07  08  09  10  11  12  13  14  15  16  17  18  19  20  21  22  23  24  25  26  27  28  29  30  
   31  32  33  34  35  36  37  38  39  40  41  42  43  44  45  46  47  48  49  50  51  52  53  54  55  56  57  58  59  60  
[Printable]
370
FPUS83 KFGF 020810
OPUFGF
PRAIRIE TO PINES WEATHER ROUNDUP
NATIONAL WEATHER SERVICE EASTERN NORTH DAKOTA/GRAND FORKS ND
300 AM CDT TUE SEP 02 2014

 **SATELLITE DATA USED TO AUGMENT SKY COVER AT AUTOMATED STATIONS**
 *****  WEATHER ACROSS EASTERN NORTH DAKOTA  *****

CITY           SKY/WX    TMP DP  RH WIND       PRES   REMARKS
GRAND FORKS    CLEAR     55  49  80 SW7       29.76R
GRAND FORKS AF CLEAR     54  51  88 W7        29.77R
GRAND CITY NWS   N/A     54 N/A N/A W6          N/A
BUXTON         NOT AVBL
DEVILS LAKE    CLEAR     55  46  71 W8        29.78R
FARGO          CLEAR     54  51  90 SW8       29.81S
WAHPETON ARPT  SUNNY     52  48  87 W8        29.84S
$$

 *****  WEATHER ACROSS CENTRAL AND WESTERN NORTH DAKOTA  *****

CITY           SKY/WX    TMP DP  RH WIND       PRES   REMARKS
JAMESTOWN      CLEAR     53  48  83 SW6       29.83S
BISMARCK       PTCLDY    53  49  86 W5        29.86S
MINOT          MOCLDY    55  48  77 SW8       29.78F
MINOT AFB      CLOUDY    53  50  90 SW6       29.78F
GARRISON         N/A     54  51  90 CALM      29.82F
WILLISTON      LGT RAIN  56  51  84 SW6       29.80F
DICKINSON      PTCLDY    52  46  80 S9        29.85F
HETTINGER      PTCLDY    50  45  83 CALM      29.91F
$$

 *****  OTHER OBSERVATIONS NORTHEAST NORTH DAKOTA  *****

CITY           SKY/WX    TMP DP  RH WIND       PRES   REMARKS
WALHALLA       FAIR      55  48  76 W7        29.74S
LANGDON        FAIR      48  46  93 W6        29.77S
CAVALIER       FAIR      55  48  76 W10       29.74S
GRAFTON        FAIR      48  48 100 SW8       29.75S
CANDO          FAIR      46  45  93 W5        29.79S
FORT TOTTEN      N/A     54  48  81 W2        29.95
ROLLA          FAIR      46  46 100 SW14      29.79S
RUGBY          FAIR      48  46  93 SW6       29.79S
 ***** THE ABOVE OBSERVATIONS ARE NON NWS ARE NOT QUALITY
        CONTROLLED AND MAY MIS-REPORT RAIN FOR SNOW...
$$

 *****  OTHER OBSERVATIONS SOUTHEAST NORTH DAKOTA *****

CITY           SKY/WX    TMP DP  RH WIND       PRES   REMARKS
COOPERSTOWN    NOT AVBL
VALLEY CITY    FAIR      48  48 100 S3        29.83S
OAKES            N/A     48  48 100 SW6       29.86S
GWINNER        SUNNY     54  54 100 CALM      29.86S
BUFFALO        NOT AVBL
WYNDMERE       NOT AVBL
 ***** THE ABOVE OBSERVATIONS ARE NON NWS ARE NOT QUALITY
       CONTROLLED AND MAY MIS-REPORT RAIN FOR SNOW...
$$

  *****  WEATHER ACROSS NORTHERN MINNESOTA  *****

CITY           SKY/WX    TMP DP  RH WIND       PRES   REMARKS
FLAG ISLAND    CLEAR     57  52  82 W13       29.69S
WARROAD        CLEAR     52  48  87 SW8       29.73S
ROSEAU           N/A     54  48  82 SW6       29.74R
HALLOCK        PTCLDY    48  46  93 CALM      29.73S
THF RVR FALLS  CLEAR     52  50  93 CALM      29.77S
HALSTAD          N/A     51  48  91 SW7         N/A
FOSSTON        CLEAR     46  46 100 S7        29.80S
BAUDETTE       CLEAR     52  50  93 SW5       29.72S
WASKISH        CLEAR     61  55  82 SW13G18   29.75S
CROOKSTON      CLEAR     52  50  93 S6        29.77S
$$
  *****  WEATHER ACROSS CENTRAL AND WEST MINNESOTA  *****

CITY           SKY/WX    TMP DP  RH WIND       PRES   REMARKS
BEMIDJI        PTCLDY    52  49  90 SW6       29.79R
PARK RAPIDS    MOCLDY    50  48  93 W3        29.81S
WADENA         MOCLDY    54  52  94 SW6       29.82S
DETROIT LAKES  CLEAR     55  54  94 SW6       29.83S
MOORHEAD       CLEAR     55  55 100 S3        29.82S
FERGUS FALLS   PTCLDY    54  54 100 CALM      29.84S
ELBOW LAKE     FAIR      53  53  99 SW3       29.84S
MORRIS MN      MOCLDY    55  54  94 W5        29.84S
STAPLES        CLOUDY    52  50  93 CALM      29.82S
WHEATON        PTCLDY    54  52  94 SW3       29.86F
$$
  *****  WEATHER ELSEWHERE ACROSS MINNESOTA  *****

CITY           SKY/WX    TMP DP  RH WIND       PRES   REMARKS
DULUTH         PTCLDY    56  51  84 W7        29.78R
INTRNTL FALLS  CLEAR     48  47  96 SW6       29.73S
ELY            CLEAR     52  50  93 SW3       29.76R
CLOQUET        PTCLDY    54  50  87 W5        29.79S
BRAINERD       MOCLDY    54  53  97 SW5       29.82S
HIBBING        FOG       48  45  89 CALM      29.78R VSB 3/4
ALEXANDRIA     MOCLDY    58  55  90 W6        29.85S
SAINT CLOUD    CLOUDY    61  55  81 CALM      29.81S
MINNEAPOLIS    CLOUDY    64  59  83 SW6       29.82S
$$

  *****  WEATHER ACROSS SOUTH DAKOTA  *****

CITY           SKY/WX    TMP DP  RH WIND       PRES   REMARKS
SIOUX FALLS    CLOUDY    61  54  77 VRB3      29.90R
BROOKINGS      NOT AVBL
WATERTOWN      PTCLDY    55  53  93 W5        29.88S
HURON          CLEAR     56  54  93 S3        29.89S
SISSETON         N/A     56  54  93 W7        29.84F
ABERDEEN       CLEAR     50  50 100 W7        29.88S
MITCHELL       CLEAR     60  56  86 SW10      29.91F
PIERRE         CLEAR     54  52  93 SW8       29.91F
MOBRIDGE       CLEAR     49  48  97 CALM      29.88S
RAPID CITY     CLEAR     48  42  80 CALM      29.99F
$$

  *****  SOME WEATHER IN NEARBY STATES *****

CITY           SKY/WX    TMP DP  RH WIND       PRES   REMARKS
GLASGOW MT     PTCLDY    59  46  62 W10       29.79S
GREAT FALLS MT PTCLDY    51  37  58 SW8       29.91F
CHEYENNE WY    CLEAR     43  40  89 W6        30.16F
SCOTTSBLUFF NE CLEAR     46  45  96 CALM      30.08S
OMAHA NE       MOCLDY    62  58  86 CALM      29.93F
DES MOINES IA  PTCLDY    67  61  81 NW16G28   29.90F
DAVENPORT IA   FOG       60  59  96 CALM      29.88F VSB 1/4
CHICAGO IL     MOCLDY    69  65  86 W5        29.87R
EAU CLAIRE WI  MOCLDY    60  59  96 CALM      29.82S
LA CROSSE WI   CLEAR     63  60  90 S5        29.84F
$$

  *****  SOME NATIONAL WEATHER *****

CITY           SKY/WX    TMP DP  RH WIND       PRES   REMARKS
LA GUARDIA NY  CLEAR     80  73  79 SW6       29.91S
RALEIGH NC     PTCLDY    74  70  87 SW6       30.05S
ATLANTA GA     PTCLDY    73  69  87 W6        30.10R
NEW ORLEANS LA CLEAR     80  75  84 SE5       30.00S
OKLAHOMA CITY  PTCLDY    80  67  64 S15       29.83F
ALBUQUERQUE NM CLEAR     72  41  32 CALM      30.08S
SALT LAKE CITY CLEAR     61  38  42 S8        30.03F
LOS ANGELES CA PTCLDY    69  63  81 SE5       29.83S
BOISE ID       CLEAR     58  35  42 SE6       29.98S
SEATTLE WA     PTCLDY    63  53  70 NE5       29.99S
$$

*** WEATHER ACROSS MANITOBA...SASKATCHEWAN AND ONTARIO ***
                ***ONTARIO***

CITY           SKY/WX    TMP DP  RH WIND       PRES   REMARKS
GERALDTON      CLEAR     54  54 100 SW7       29.62R
THUNDER BAY    PTCLDY    52  52 100 W5        29.69S
SIOUX LOOKOUT  PTCLDY    54  52  94 SW6       29.65R
TORONTO        PTCLDY    68  66  94 SW5       29.81R
BIG TROUT LK   MOCLDY    54  54 100 NW6       29.48R
PICKLE LAKE    NOT AVBL
DRYDEN         CLEAR     50  50 100 SW7       29.67S
KENORA         PTCLDY    54  52  94 W6        29.69R
$$
                *** MANITOBA***

CITY           SKY/WX    TMP DP  RH WIND       PRES   REMARKS
BRANDON        CLEAR     45  45 100 W5        29.75S
DAUPHIN        CLEAR     50  46  87 SW7       29.68S
ISLAND LAKE    PTCLDY    54  52  94 CALM      29.55S
PILOT MOUND      N/A     46  45  93 W6          N/A
THE PAS        MOCLDY    55  50  82 W7        29.58S
THOMPSON       PTCLDY    45  45 100 W7        29.51S
WINNIPEG       CLEAR     52  46  82 W9        29.71S
CHURCHILL      FOG       50  50 100 E8        29.49S VSB 3/8
GILLAM         PTCLDY    48  48 100 SW2       29.48S
$$
                ***SASKATCHEWAN***

CITY           SKY/WX    TMP DP  RH WIND       PRES   REMARKS
ESTEVAN        MOCLDY    54  50  87 SE2       29.76F
KINDERSLEY     MOCLDY    48  46  93 W3        29.73F
LLOYDMINSTER   MOCLDY    46  45  93 W6        29.70F
PRINCE ALBERT  MOCLDY    50  48  93 SW3       29.65F
REGINA         CLEAR     52  46  82 S9        29.71F
YORKTON        LGT RAIN  54  48  82 W8        29.72R
N. BATTLEFORD  LGT RAIN  52  48  87 W6        29.72S




U.S. Dept. of Commerce
NOAA National Weather Service
1325 East West Highway
Silver Spring, MD 20910
E-mail: w-nws.webmaster@noaa.gov
Page last modified: May 16, 2007
NATIONAL WEATHER SERVICE: for Safety, for Work, for Fun - FOR LIFE